San Luis Reservoir Weather Center

Moon Phase Calendar



San Luis Reservoir Water Level
Online Cameras

 


      

Current Conditions in Santa Nella Village
11/28/2022 3:22:51 AM

40°F
Feels Like 36
Clouds
Humidity
59%
Pressure
29.97"
Wind
5.2 mph (WSW)
Dew Point
27°F
UV Index
0/10 (Low)
Visibility
6 mi

Hourly Forecast

Date & Time Mon, Nov 28
3:00 AM
Mon, Nov 28
4:00 AM
Mon, Nov 28
5:00 AM
Mon, Nov 28
6:00 AM
Mon, Nov 28
7:00 AM
Mon, Nov 28
8:00 AM
Mon, Nov 28
9:00 AM
Mon, Nov 28
10:00 AM
Mon, Nov 28
11:00 AM
Mon, Nov 28
12:00 PM
Mon, Nov 28
1:00 PM
Mon, Nov 28
2:00 PM
Mon, Nov 28
3:00 PM
Mon, Nov 28
4:00 PM
Mon, Nov 28
5:00 PM
Mon, Nov 28
6:00 PM
Mon, Nov 28
7:00 PM
Mon, Nov 28
8:00 PM
Mon, Nov 28
9:00 PM
Mon, Nov 28
10:00 PM
Mon, Nov 28
11:00 PM
Tue, Nov 29
12:00 AM
Tue, Nov 29
1:00 AM
Tue, Nov 29
2:00 AM
Tue, Nov 29
3:00 AM
Tue, Nov 29
4:00 AM
Tue, Nov 29
5:00 AM
Tue, Nov 29
6:00 AM
Tue, Nov 29
7:00 AM
Tue, Nov 29
8:00 AM
Tue, Nov 29
9:00 AM
Tue, Nov 29
10:00 AM
Tue, Nov 29
11:00 AM
Tue, Nov 29
12:00 PM
Tue, Nov 29
1:00 PM
Tue, Nov 29
2:00 PM
Tue, Nov 29
3:00 PM
Tue, Nov 29
4:00 PM
Tue, Nov 29
5:00 PM
Tue, Nov 29
6:00 PM
Tue, Nov 29
7:00 PM
Tue, Nov 29
8:00 PM
Tue, Nov 29
9:00 PM
Tue, Nov 29
10:00 PM
Tue, Nov 29
11:00 PM
Wed, Nov 30
12:00 AM
Wed, Nov 30
1:00 AM
Wed, Nov 30
2:00 AM
Condition
Clouds

Clouds

Clouds

Clouds

Clouds

Clouds

Clouds

Clouds

Clouds

Clouds

Clouds

Clouds

Clouds

Clouds

Clear

Clear

Clear

Clear

Clear

Clear

Clear

Clear

Clear

Clear

Clear

Clear

Clear

Clear

Clear

Clear

Clear

Clear

Clear

Clear

Clouds

Clouds

Clouds

Clouds

Clouds

Clouds

Clouds

Clouds

Clouds

Clouds

Clouds

Clouds

Clouds

Clouds
Temperature 40°F41°F42°F43°F43°F47°F51°F56°F58°F59°F61°F61°F60°F56°F50°F48°F47°F46°F45°F44°F43°F42°F42°F41°F41°F41°F40°F40°F40°F43°F48°F52°F54°F56°F56°F56°F56°F54°F48°F46°F45°F45°F44°F43°F43°F42°F42°F41°F
Feels Like 36°F37°F38°F39°F40°F44°F50°F54°F56°F57°F59°F59°F57°F53°F48°F44°F42°F41°F40°F40°F39°F39°F38°F38°F38°F38°F38°F38°F40°F43°F48°F49°F51°F53°F53°F53°F53°F50°F47°F46°F45°F45°F44°F43°F43°F42°F42°F41°F
Cloudiness 96%95%58%40%22%16%18%29%17%25%21%17%15%15%4%4%3%2%2%1%0%2%4%5%5%5%0%0%0%1%2%2%5%4%11%22%20%19%14%14%15%14%15%16%59%71%73%69%
Visibility 6 mi6 mi6 mi6 mi6 mi6 mi6 mi6 mi6 mi6 mi6 mi6 mi6 mi6 mi6 mi6 mi6 mi6 mi6 mi6 mi6 mi6 mi6 mi6 mi6 mi6 mi6 mi6 mi6 mi6 mi6 mi6 mi6 mi6 mi6 mi6 mi6 mi6 mi6 mi6 mi6 mi6 mi6 mi6 mi6 mi6 mi6 mi6 mi
Precipitation 0%0%0%0%0%0%0%0%0%0%0%0%0%0%0%0%0%0%0%0%0%0%0%0%0%0%0%0%0%0%0%0%0%0%0%0%0%0%0%0%0%0%0%0%0%0%0%0%
Humidity 59%60%63%70%79%82%73%62%56%51%38%34%33%44%57%65%71%74%78%80%83%85%87%88%88%88%88%88%87%76%61%50%43%39%36%35%35%37%43%45%46%47%48%50%51%52%54%55%
Dew Point 27°F29°F31°F34°F37°F40°F42°F42°F41°F39°F35°F32°F30°F33°F35°F36°F36°F37°F37°F37°F37°F37°F37°F37°F37°F36°F36°F36°F35°F35°F34°F32°F31°F30°F29°F28°F27°F27°F26°F25°F25°F25°F25°F25°F25°F25°F25°F26°F
Pressure 29.97"29.97"29.97"29.97"29.97"29.97"29.97"29.97"29.94"29.91"29.88"29.88"29.85"29.88"29.88"29.91"29.94"29.94"29.94"29.94"29.94"29.94"29.94"29.97"29.97"29.97"29.97"29.97"30"30"30"30.03"30"30"29.97"29.97"29.97"30"30"30"30.03"30.03"30.03"30.03"30.06"30.06"30.06"30.06"
Wind Speed 5.2 mph5.7 mph6 mph6 mph5.6 mph4.9 mph5.2 mph7.4 mph9.9 mph10.8 mph13 mph13 mph13.3 mph12.2 mph10.5 mph9.6 mph8.9 mph8.8 mph8.1 mph7.3 mph6.9 mph6 mph5.4 mph4.9 mph4 mph3.7 mph3.5 mph3.2 mph2.7 mph2.2 mph1.8 mph3.2 mph4.3 mph4.6 mph4.8 mph5.6 mph5.6 mph5 mph3.5 mph2 mph0.7 mph0.1 mph0.8 mph0.8 mph0.6 mph0.7 mph1.1 mph1.8 mph
Wind
Direction
248°
WSW
249°
WSW
252°
WSW
262°
W
260°
W
254°
WSW
245°
WSW
257°
WSW
268°
W
267°
W
274°
W
274°
W
274°
W
265°
W
257°
WSW
250°
WSW
252°
WSW
242°
WSW
238°
WSW
246°
WSW
243°
WSW
245°
WSW
245°
WSW
246°
WSW
253°
WSW
258°
WSW
255°
WSW
265°
W
262°
W
277°
W
323°
NW
12°
NNE
31°
NNE
45°
NE
59°
ENE
62°
ENE
59°
ENE
59°
ENE
63°
ENE
68°
ENE
79°
E
244°
WSW
202°
SSW
206°
SSW
215°
SW
150°
SSE
152°
SSE
151°
SSE

Daily Forecast

Date High Low Precip. Humidity
Today
Nov 28

Clouds
61 °F
40 °F
0%
56%
Tuesday
Nov 29

Clear
56 °F
40 °F
0%
43%
Wednesday
Nov 30

Clouds
59 °F
40 °F
0%
41%
Thursday
Dec 1

Rain
51 °F
45 °F
100%
65%
Friday
Dec 2

Clouds
50 °F
39 °F
29%
63%
Saturday
Dec 3

Rain
59 °F
43 °F
76%
62%
Sunday
Dec 4

Rain
51 °F
39 °F
77%
70%
Monday
Dec 5

Clear
50 °F
37 °F
0%
69%
Tuesday
Dec 6

Clouds
53 °F
39 °F
0%
64%
Wednesday
Dec 7

Clouds
56 °F
40 °F
0%
50%
Thursday
Dec 8

Clear
56 °F
40 °F
0%
55%
Friday
Dec 9

Clouds
57 °F
44 °F
0%
52%
Saturday
Dec 10

Clouds
65 °F
50 °F
0%
39%
Sunday
Dec 11

Rain
55 °F
52 °F
48%
45%
Monday
Dec 12

Clouds
63 °F
49 °F
4%
70%
Tuesday
Dec 13

Clouds
59 °F
46 °F
0%
67%

Temperature 8-14 Day Outlook



Precipitation 8-14 Day Outlook




Quick Links
San Luis Reservoir News
San Luis Reservoir Photos
San Luis Reservoir Videos




About Us
Contact Us
Site Map
Search Site
Advertise With Us
   
SanLuis.LakesOnline.com
THE SAN LUIS RESERVOIR WEBSITE

Copyright 2022, Lakes Online
Privacy    |    Legal